DLH8WT EDDF-EKBI

Flight info

Callsign DLH8WT
Flight time 1h 0m
Altitude 39000
Route MARUN9S MARUN Y150 TOLGI/N0437F380 DCT ELSOB DCT PIZID/N0432F370 M105 AMRAK/N0437F380 DCT LOKSA
Aircraft A319/M-SADE2E3FGIJ1LORWXYZ/HB1

Departure

Time 2026-04-17 11:19
Airport Frankfurt Main Airport (EDDF)

Arrival

Time 2026-04-17 12:19
Airport Billund Airport (EKBI)
Time Latitude Longitude Altitude Speed Heading
2026-04-17 10:47 50.04430 8.56329 363 ft 0 kts 167°
2026-04-17 11:10 50.04444 8.56324 364 ft 4 kts 168°
2026-04-17 11:10 50.04470 8.56315 362 ft 4 kts 170°
2026-04-17 11:10 50.04494 8.56317 358 ft 4 kts 217°
2026-04-17 11:11 50.04509 8.56349 365 ft 4 kts 250°
2026-04-17 11:11 50.04513 8.56370 363 ft 0 kts 249°
2026-04-17 11:13 50.04513 8.56369 363 ft 1 kts 250°
2026-04-17 11:13 50.04504 8.56332 365 ft 7 kts 249°
2026-04-17 11:14 50.04482 8.56240 362 ft 11 kts 249°
2026-04-17 11:14 50.04454 8.56123 360 ft 12 kts 250°
2026-04-17 11:14 50.04408 8.56028 356 ft 11 kts 194°
2026-04-17 11:14 50.04332 8.56062 358 ft 11 kts 159°
2026-04-17 11:15 50.04290 8.56157 355 ft 12 kts 91°
2026-04-17 11:15 50.04236 8.56244 360 ft 13 kts 161°
2026-04-17 11:15 50.04159 8.56294 357 ft 11 kts 144°
2026-04-17 11:15 50.04158 8.56408 357 ft 11 kts 70°
2026-04-17 11:16 50.04186 8.56523 360 ft 11 kts 69°
2026-04-17 11:16 50.04219 8.56661 364 ft 15 kts 70°
2026-04-17 11:16 50.04254 8.56812 359 ft 14 kts 70°
2026-04-17 11:16 50.04290 8.56960 363 ft 15 kts 69°
2026-04-17 11:17 50.04327 8.57114 364 ft 15 kts 70°
2026-04-17 11:17 50.04364 8.57268 364 ft 16 kts 69°
2026-04-17 11:17 50.04402 8.57432 365 ft 17 kts 70°
2026-04-17 11:17 50.04427 8.57581 366 ft 13 kts 97°
2026-04-17 11:18 50.04374 8.57665 367 ft 12 kts 160°
2026-04-17 11:18 50.04294 8.57705 365 ft 9 kts 174°
2026-04-17 11:18 50.04258 8.57630 363 ft 11 kts 250°
2026-04-17 11:18 50.04172 8.57273 369 ft 74 kts 250°
2026-04-17 11:19 50.03902 8.56146 359 ft 144 kts 249°
2026-04-17 11:19 50.03523 8.54575 827 ft 157 kts 249°
2026-04-17 11:19 50.03143 8.52976 1551 ft 160 kts 250°
2026-04-17 11:19 50.02722 8.51230 2001 ft 183 kts 248°
2026-04-17 11:20 50.01876 8.49664 2461 ft 203 kts 207°
2026-04-17 11:20 50.00530 8.49035 3370 ft 203 kts 195°
2026-04-17 11:20 49.99157 8.48472 4279 ft 205 kts 196°
2026-04-17 11:20 49.97769 8.47864 5169 ft 209 kts 197°
2026-04-17 11:21 49.96364 8.47236 6066 ft 212 kts 196°
2026-04-17 11:21 49.94907 8.46578 6747 ft 228 kts 197°
2026-04-17 11:21 49.93320 8.45851 7370 ft 245 kts 197°
2026-04-17 11:21 49.91694 8.44976 8269 ft 252 kts 210°
2026-04-17 11:22 49.90482 8.43018 9122 ft 259 kts 245°
2026-04-17 11:22 49.90154 8.40281 10077 ft 263 kts 275°
2026-04-17 11:22 49.90773 8.37617 10937 ft 268 kts 307°
2026-04-17 11:22 49.92260 8.35854 11670 ft 281 kts 334°
2026-04-17 11:23 49.94146 8.34608 11965 ft 307 kts 336°
2026-04-17 11:23 49.96193 8.33281 12300 ft 331 kts 336°
2026-04-17 11:23 49.98388 8.31861 12680 ft 350 kts 336°
2026-04-17 11:23 50.00679 8.30377 13070 ft 363 kts 336°
2026-04-17 11:24 50.03109 8.29306 13975 ft 364 kts 349°
2026-04-17 11:24 50.05637 8.29023 14754 ft 368 kts
2026-04-17 11:24 50.08162 8.29552 15417 ft 375 kts 12°
2026-04-17 11:24 50.10659 8.30781 16182 ft 378 kts 17°
2026-04-17 11:25 50.13172 8.32091 16830 ft 383 kts 17°
2026-04-17 11:25 50.15708 8.33422 17525 ft 387 kts 17°
2026-04-17 11:25 50.18275 8.34779 18222 ft 391 kts 17°
2026-04-17 11:25 50.20862 8.36152 18851 ft 395 kts 17°
2026-04-17 11:26 50.23479 8.37543 19480 ft 398 kts 17°
2026-04-17 11:26 50.26099 8.38994 20102 ft 403 kts 21°
2026-04-17 11:26 50.28547 8.41197 20696 ft 408 kts 31°
2026-04-17 11:26 50.30932 8.43632 21293 ft 411 kts 31°
2026-04-17 11:27 50.33333 8.46109 21866 ft 415 kts 31°
2026-04-17 11:27 50.35745 8.48614 22455 ft 417 kts 31°
2026-04-17 11:27 50.38170 8.51136 23017 ft 420 kts 31°
2026-04-17 11:27 50.40613 8.53680 23556 ft 423 kts 31°
2026-04-17 11:28 50.43078 8.56246 24039 ft 426 kts 31°
2026-04-17 11:28 50.45556 8.58823 24475 ft 429 kts 31°
2026-04-17 11:28 50.48049 8.61411 24923 ft 431 kts 31°
2026-04-17 11:28 50.50557 8.64016 25367 ft 433 kts 31°
2026-04-17 11:29 50.53072 8.66639 25805 ft 435 kts 31°
2026-04-17 11:29 50.55602 8.69283 26249 ft 438 kts 30°
2026-04-17 11:29 50.58150 8.71948 26654 ft 441 kts 30°
2026-04-17 11:29 50.60742 8.74662 27077 ft 443 kts 30°
2026-04-17 11:30 50.63283 8.77320 27481 ft 445 kts 30°
2026-04-17 11:30 50.65868 8.80024 27889 ft 448 kts 30°
2026-04-17 11:30 50.68467 8.82749 28288 ft 450 kts 30°
2026-04-17 11:30 50.71078 8.85499 28678 ft 452 kts 30°
2026-04-17 11:31 50.73695 8.88260 29053 ft 454 kts 30°
2026-04-17 11:31 50.76330 8.91044 29431 ft 456 kts 30°
2026-04-17 11:31 50.78970 8.93835 29797 ft 458 kts 30°
2026-04-17 11:31 50.81628 8.96648 30162 ft 460 kts 30°
2026-04-17 11:32 50.84282 8.99466 30592 ft 459 kts 30°
2026-04-17 11:32 50.86929 9.02281 31034 ft 458 kts 30°
2026-04-17 11:32 50.89570 9.05092 31475 ft 457 kts 30°
2026-04-17 11:32 50.92206 9.07896 31909 ft 455 kts 30°
2026-04-17 11:33 50.94834 9.10689 32363 ft 454 kts 29°
2026-04-17 11:33 50.97600 9.12979 32800 ft 445 kts 15°
2026-04-17 11:33 51.00577 9.14070 33246 ft 436 kts
2026-04-17 11:33 51.03590 9.14557 33712 ft 434 kts
2026-04-17 11:34 51.06588 9.15023 34184 ft 432 kts
2026-04-17 11:34 51.09575 9.15487 34595 ft 431 kts
2026-04-17 11:34 51.12556 9.15948 34991 ft 430 kts
2026-04-17 11:34 51.15537 9.16408 35371 ft 430 kts
2026-04-17 11:35 51.18513 9.16867 35741 ft 429 kts
2026-04-17 11:35 51.21487 9.17331 36110 ft 429 kts
2026-04-17 11:35 51.24455 9.17735 36450 ft 426 kts 356°
2026-04-17 11:35 51.27402 9.17551 36780 ft 423 kts 353°
2026-04-17 11:36 51.30342 9.17307 37103 ft 423 kts 353°
2026-04-17 11:36 51.33280 9.17062 37434 ft 423 kts 353°
2026-04-17 11:36 51.36220 9.16818 37757 ft 423 kts 353°
2026-04-17 11:36 51.39156 9.16572 38054 ft 422 kts 353°
2026-04-17 11:37 51.42086 9.16326 38356 ft 422 kts 353°
2026-04-17 11:37 51.45021 9.16077 38658 ft 422 kts 353°
2026-04-17 11:37 51.47950 9.15825 38929 ft 422 kts 353°
2026-04-17 11:37 51.50885 9.15574 39124 ft 422 kts 353°
2026-04-17 11:38 51.56762 9.15083 39232 ft 423 kts 353°
2026-04-17 11:38 51.62644 9.14586 39232 ft 423 kts 353°
2026-04-17 11:39 51.68525 9.14080 39227 ft 423 kts 353°
2026-04-17 11:39 51.74404 9.13581 39230 ft 423 kts 353°
2026-04-17 11:40 51.80293 9.13076 39230 ft 424 kts 353°
2026-04-17 11:40 51.86179 9.12560 39232 ft 424 kts 353°
2026-04-17 11:41 51.92065 9.12055 39232 ft 424 kts 353°
2026-04-17 11:41 51.97951 9.11548 39246 ft 424 kts 353°
2026-04-17 11:42 52.03839 9.11029 39235 ft 423 kts 353°
2026-04-17 11:42 52.09724 9.10515 39230 ft 423 kts 353°
2026-04-17 11:43 52.15609 9.10007 39228 ft 423 kts 353°
2026-04-17 11:43 52.21489 9.09503 39233 ft 423 kts 353°
2026-04-17 11:44 52.27376 9.08995 39227 ft 423 kts 353°
2026-04-17 11:44 52.33258 9.08477 39228 ft 423 kts 353°
2026-04-17 11:45 52.39104 9.07951 39224 ft 424 kts 353°
2026-04-17 11:45 52.44993 9.07436 39231 ft 424 kts 353°
2026-04-17 11:46 52.50887 9.06913 39226 ft 424 kts 353°
2026-04-17 11:46 52.56787 9.06383 39227 ft 425 kts 353°
2026-04-17 11:47 52.62692 9.05860 39234 ft 425 kts 353°
2026-04-17 11:47 52.68598 9.05326 39240 ft 425 kts 353°
2026-04-17 11:48 52.74511 9.04799 39237 ft 426 kts 353°
2026-04-17 11:48 52.80436 9.04275 39237 ft 426 kts 353°
2026-04-17 11:49 52.86357 9.03739 39238 ft 426 kts 353°
2026-04-17 11:49 52.92279 9.03197 39249 ft 426 kts 353°
2026-04-17 11:50 52.98212 9.02664 39244 ft 427 kts 353°
2026-04-17 11:50 53.03143 9.02224 39243 ft 427 kts 353°
2026-04-17 11:51 53.09078 9.01689 39242 ft 427 kts 353°
2026-04-17 11:51 53.15015 9.01138 39243 ft 427 kts 352°
2026-04-17 11:52 53.20957 9.00580 39243 ft 428 kts 353°
2026-04-17 11:52 53.26900 9.00036 39243 ft 428 kts 353°
2026-04-17 11:53 53.32840 8.99489 39245 ft 428 kts 353°
2026-04-17 11:53 53.38785 8.98945 39244 ft 428 kts 353°
2026-04-17 11:54 53.44729 8.98397 39253 ft 428 kts 353°
2026-04-17 11:54 53.50677 8.97847 39248 ft 428 kts 353°
2026-04-17 11:55 53.56635 8.97302 39246 ft 429 kts 353°
2026-04-17 11:55 53.62552 8.96757 39247 ft 429 kts 352°
2026-04-17 11:56 53.68511 8.96194 39259 ft 429 kts 352°
2026-04-17 11:56 53.74484 8.95633 39247 ft 430 kts 353°
2026-04-17 11:57 53.80460 8.95075 39243 ft 430 kts 352°
2026-04-17 11:57 53.86441 8.94511 39243 ft 431 kts 352°
2026-04-17 11:58 53.92430 8.93942 39256 ft 431 kts 352°
2026-04-17 11:58 53.98421 8.93361 39249 ft 432 kts 352°
2026-04-17 11:59 54.04426 8.92789 39252 ft 432 kts 352°
2026-04-17 11:59 54.10434 8.92230 39207 ft 433 kts 352°
2026-04-17 12:00 54.13446 8.91943 38990 ft 432 kts 352°
2026-04-17 12:00 54.16446 8.91656 38718 ft 431 kts 352°
2026-04-17 12:00 54.19441 8.91366 38446 ft 431 kts 352°
2026-04-17 12:00 54.22438 8.91075 38171 ft 432 kts 352°
2026-04-17 12:01 54.25437 8.90783 37893 ft 432 kts 352°
2026-04-17 12:01 54.28434 8.90495 37507 ft 432 kts 352°
2026-04-17 12:01 54.31440 8.90206 36700 ft 433 kts 352°
2026-04-17 12:01 54.34452 8.89915 35904 ft 434 kts 352°
2026-04-17 12:02 54.37475 8.89626 35064 ft 436 kts 352°
2026-04-17 12:02 54.40519 8.89334 34155 ft 439 kts 351°
2026-04-17 12:02 54.43580 8.89035 33159 ft 442 kts 352°
2026-04-17 12:02 54.46656 8.88734 32105 ft 445 kts 352°
2026-04-17 12:03 54.49760 8.88431 31006 ft 449 kts 352°
2026-04-17 12:03 54.52889 8.88124 29800 ft 453 kts 352°
2026-04-17 12:03 54.56051 8.87813 28521 ft 456 kts 352°
2026-04-17 12:03 54.59227 8.87498 27241 ft 459 kts 353°
2026-04-17 12:04 54.62418 8.87181 26039 ft 460 kts 353°
2026-04-17 12:04 54.65595 8.86869 25199 ft 454 kts 353°
2026-04-17 12:04 54.68728 8.86569 24372 ft 448 kts 354°
2026-04-17 12:04 54.71828 8.86276 23483 ft 444 kts 354°
2026-04-17 12:05 54.74890 8.85978 22689 ft 437 kts 354°
2026-04-17 12:05 54.77906 8.85681 21937 ft 431 kts 354°
2026-04-17 12:05 54.80880 8.85385 21208 ft 426 kts 354°
2026-04-17 12:05 54.83817 8.85091 20500 ft 420 kts 354°
2026-04-17 12:06 54.86722 8.84798 19818 ft 416 kts 354°
2026-04-17 12:06 54.89601 8.84508 19155 ft 412 kts 354°
2026-04-17 12:06 54.92452 8.84225 18515 ft 409 kts 354°
2026-04-17 12:06 54.95283 8.83945 17871 ft 406 kts 354°
2026-04-17 12:07 54.98089 8.83668 17287 ft 402 kts 354°
2026-04-17 12:07 55.00825 8.83396 16739 ft 397 kts 355°
2026-04-17 12:07 55.03569 8.83124 16194 ft 393 kts 355°
2026-04-17 12:07 55.06286 8.82852 15643 ft 389 kts 355°
2026-04-17 12:08 55.08979 8.82582 15083 ft 386 kts 355°
2026-04-17 12:08 55.11643 8.82319 14518 ft 382 kts 355°
2026-04-17 12:08 55.14293 8.82052 13897 ft 381 kts 355°
2026-04-17 12:08 55.16928 8.81781 13276 ft 377 kts 355°
2026-04-17 12:09 55.19537 8.81516 12623 ft 374 kts 355°
2026-04-17 12:09 55.22124 8.81256 11964 ft 371 kts 355°
2026-04-17 12:09 55.24692 8.80996 11334 ft 368 kts 355°
2026-04-17 12:09 55.27195 8.80739 11160 ft 352 kts 355°
2026-04-17 12:10 55.29585 8.80496 11029 ft 336 kts 355°
2026-04-17 12:10 55.31870 8.80267 10904 ft 322 kts 355°
2026-04-17 12:10 55.34063 8.80049 10780 ft 310 kts 355°
2026-04-17 12:10 55.36189 8.79838 10521 ft 303 kts 355°
2026-04-17 12:11 55.38280 8.79626 10276 ft 300 kts 355°
2026-04-17 12:11 55.40354 8.79413 10123 ft 298 kts 355°
2026-04-17 12:11 55.42425 8.79199 9990 ft 298 kts 355°
2026-04-17 12:12 55.46570 8.78772 9335 ft 301 kts 355°
2026-04-17 12:12 55.48665 8.78541 8813 ft 302 kts 355°
2026-04-17 12:12 55.50750 8.78300 8292 ft 299 kts 355°
2026-04-17 12:12 55.52814 8.78065 7785 ft 295 kts 355°
2026-04-17 12:13 55.54845 8.77840 7297 ft 290 kts 355°
2026-04-17 12:13 55.56836 8.77625 6760 ft 283 kts 355°
2026-04-17 12:13 55.58780 8.77423 6186 ft 277 kts 355°
2026-04-17 12:13 55.60683 8.77224 5621 ft 271 kts 355°
2026-04-17 12:14 55.62544 8.77024 5175 ft 262 kts 355°
2026-04-17 12:14 55.64339 8.76830 4870 ft 256 kts 355°
2026-04-17 12:14 55.66101 8.76639 4555 ft 251 kts 355°
2026-04-17 12:14 55.67830 8.76451 4246 ft 249 kts 355°
2026-04-17 12:15 55.69585 8.76450 3962 ft 260 kts
2026-04-17 12:15 55.71290 8.77801 3631 ft 280 kts 38°
2026-04-17 12:15 55.72540 8.80480 3362 ft 286 kts 65°
2026-04-17 12:15 55.73019 8.83841 3086 ft 276 kts 88°
2026-04-17 12:16 55.73126 8.87094 2996 ft 251 kts 89°
2026-04-17 12:16 55.73220 8.90067 2847 ft 234 kts 89°
2026-04-17 12:16 55.73312 8.92885 2574 ft 225 kts 89°
2026-04-17 12:16 55.73401 8.95569 2282 ft 210 kts 89°
2026-04-17 12:17 55.73484 8.98068 2007 ft 196 kts 89°
2026-04-17 12:17 55.73560 9.00384 1760 ft 182 kts 89°
2026-04-17 12:17 55.73631 9.02586 1493 ft 175 kts 89°
2026-04-17 12:17 55.73701 9.04715 1259 ft 170 kts 90°
2026-04-17 12:18 55.73770 9.06775 1039 ft 161 kts 89°
2026-04-17 12:18 55.73832 9.08658 780 ft 145 kts 88°
2026-04-17 12:18 55.73887 9.10364 580 ft 133 kts 87°
2026-04-17 12:18 55.73936 9.11958 403 ft 127 kts 88°
2026-04-17 12:19 55.73982 9.13508 246 ft 125 kts 89°
2026-04-17 12:19 55.74025 9.14895 216 ft 94 kts 86°
2026-04-17 12:19 55.74053 9.15806 216 ft 57 kts 86°
2026-04-17 12:19 55.74072 9.16420 216 ft 46 kts 87°
2026-04-17 12:20 55.74084 9.16790 216 ft 20 kts 86°
2026-04-17 12:20 55.74140 9.16911 216 ft 9 kts
2026-04-17 12:20 55.74208 9.16906 218 ft 11 kts 355°
2026-04-17 12:20 55.74251 9.16827 225 ft 11 kts 271°
2026-04-17 12:21 55.74247 9.16661 216 ft 16 kts 267°
2026-04-17 12:21 55.74240 9.16433 216 ft 21 kts 267°
2026-04-17 12:21 55.74231 9.16150 216 ft 24 kts 267°
2026-04-17 12:21 55.74222 9.15844 225 ft 25 kts 266°
2026-04-17 12:22 55.74212 9.15526 216 ft 26 kts 267°
2026-04-17 12:22 55.74202 9.15232 216 ft 21 kts 267°
2026-04-17 12:22 55.74201 9.15030 216 ft 13 kts 287°
2026-04-17 12:22 55.74283 9.14992 216 ft 14 kts 357°
2026-04-17 12:23 55.74382 9.14982 218 ft 15 kts 357°
2026-04-17 12:23 55.74451 9.14909 218 ft 12 kts 279°
2026-04-17 12:23 55.74470 9.14805 220 ft 7 kts 345°
2026-04-17 12:23 55.74519 9.14816 216 ft 5 kts 356°
2026-04-17 12:24 55.74534 9.14815 216 ft 0 kts 357°